Location: Most
(50.5330°N, 13.6500°E)
Time: 05:18:12
(UTC+02:00)

ISS - Pass Details

Date: 18 May 2021
Orbit: 417 x 422 km, 51.6° (Epoch: 13 June)

Event Time Altitude Azimuth Distance (km) Brightness Sun altitude
Rises 01:17:04 0° 283° (WNW) 2,370 0.2 -19.8°
Reaches altitude 10° 01:19:10 10° 283° (WNW) 1,506 -0.9 -19.8°
Maximum altitude 01:22:34 88° 196° (SSW) 427 -3.9 -19.8°
Enters shadow 01:22:37 86° 135° (SE) 427 -3.9 -19.8°
